Flag for Turkey Weather past 2 weeks in Izmir, Turkey

Now
93 °F

Passing clouds.


Feels Like: 98 °F
Forecast: 74 / 102 °F
Wind: 10 mph from North

Location: Izmir / Adnan Menderes

Current Time: Jul 31, 2015 at 12:35:44 PM

Latest Report: Jul 31, 2015 at 11:50 AM


Visibility: N/A

Pressure: 29.68 "Hg

Humidity: 44%

Dew point: 68 °F

Location of IzmirLocation

Historic Weather in Izmir — Graph

°F

Izmir temperature yesterday

Maximum temperature yesterday: 102 °F (at 2:50 PM)
Minimum temperature yesterday: 72 °F (at 5:20 AM)
Average temperature yesterday: 87 °F

Past Weeks' High & Low Weather Summary

 TemperatureHumidityPressure
High102 °F (Jul 22, 2:50 PM)94% (Jul 24, 4:20 AM)29.92 "Hg (Jul 24, 4:20 AM)
Low66 °F (Jul 26, 4:50 AM)14% (Jul 22, 3:20 PM)29.65 "Hg (Jul 20, 5:20 PM)
Average86 °F45%29.74 "Hg
* Reported Jul 16 11:20 AM — Jul 31 11:20 AM, Izmir, Weather by CustomWeather, © 2015

Note: Actual official high and low records may vary slightly from our data, if they occured in-between our weather recording intervals... More about our weather records

Advertising

Izmir weather history for previous 24 hours

 ConditionsComfort  
Time TempWeatherWind HumidityBarometerVisibility
11:20 AM
Fri, Jul 31
93 °FPassing clouds.7 mph44%29.68 "HgN/A
10:20 AM90 °FPassing clouds.3 mph49%29.68 "HgN/A
9:50 AM86 °FSunny.2 mph59%29.68 "Hg10 mi
9:20 AM84 °FSunny.2 mph62%29.68 "Hg10 mi
8:50 AM82 °FSunny.2 mph66%29.68 "Hg10 mi
8:20 AM81 °FSunny.2 mph70%29.68 "Hg10 mi
7:50 AM77 °FSunny.1 mph74%29.68 "Hg10 mi
7:20 AM75 °FSunny.1 mph78%29.68 "Hg10 mi
6:50 AM73 °FClear.No wind78%29.68 "Hg10 mi
6:20 AM73 °FClear.1 mph78%29.68 "Hg10 mi
5:50 AM72 °FClear.2 mph83%29.68 "Hg10 mi
5:20 AM73 °FClear.2 mph83%29.68 "Hg10 mi
4:50 AM73 °FClear.No wind83%29.68 "Hg10 mi
4:20 AM73 °FClear.2 mph89%29.68 "Hg10 mi
3:50 AM73 °FClear.1 mph89%29.68 "Hg10 mi
3:20 AM75 °FClear.No wind83%29.68 "Hg10 mi
2:50 AM75 °FClear.2 mph83%29.68 "Hg10 mi
2:20 AM77 °FClear.1 mph79%29.68 "Hg10 mi
1:50 AM77 °FClear.1 mph83%29.68 "Hg10 mi
12:50 AM79 °FPassing clouds.5 mph79%29.68 "HgN/A
12:20 AM79 °FClear.3 mph79%29.68 "Hg10 mi
11:50 PM
Thu, Jul 30
81 °FPassing clouds.5 mph70%29.68 "HgN/A
11:20 PM82 °FPassing clouds.3 mph58%29.68 "HgN/A
10:50 PM84 °FClear.6 mph55%29.68 "Hg10 mi
10:20 PM86 °FClear.10 mph55%29.68 "Hg10 mi
9:50 PM86 °FClear.9 mph52%29.68 "Hg10 mi
9:20 PM88 °FSunny.9 mph43%29.68 "Hg10 mi
8:50 PM90 °FSunny.9 mph41%29.68 "Hg10 mi
8:20 PM90 °FSunny.10 mph41%29.68 "Hg10 mi
7:50 PM93 °FPassing clouds.8 mph34%29.65 "HgN/A
7:20 PM97 °FSunny.13 mph30%29.65 "Hg10 mi
6:50 PM100 °FSunny.15 mph25%29.65 "Hg10 mi
6:20 PM100 °FSunny.16 mph24%29.65 "Hg10 mi
5:50 PM102 °FSunny.17 mph23%29.65 "Hg10 mi
5:20 PM102 °FPassing clouds.17 mph23%29.65 "HgN/A
4:50 PM100 °FPassing clouds.17 mph24%29.65 "HgN/A
4:20 PM102 °FPassing clouds.17 mph26%29.65 "HgN/A
3:50 PM102 °FSunny.17 mph23%29.65 "Hg10 mi
3:20 PM102 °FSunny.18 mph26%29.65 "Hg10 mi
2:50 PM102 °FSunny.14 mph26%29.65 "Hg10 mi
2:20 PM100 °FSunny.15 mph27%29.68 "Hg10 mi
1:50 PM100 °FSunny.15 mph27%29.68 "Hg10 mi
1:20 PM99 °FSunny.13 mph31%29.68 "Hg10 mi
12:50 PM97 °FSunny.12 mph32%29.68 "Hg10 mi
12:20 PM97 °FSunny.9 mph32%29.71 "Hg10 mi
Weather by CustomWeather, © 2015

See weather overviewHow to use our weather pages